Home   Weather   Kongsvinger   Past weeks

Flag for Norway Past Weather in Kongsvinger, Norway — Yesterday and Last 2 Weeks

Now
57 °F

Passing clouds.


Feels Like: 55 °F
Forecast: 47 / 60 °F
Wind: 9 mph from South

Location: Oslo Gardermoen Airport

Current Time: Sep 25, 2016 at 10:52:49 PM

Latest Report: Sep 25, 2016 at 9:50 PM


Visibility: N/A

Pressure: 30.09 "Hg

Humidity: 88%

Dew Point: 54 °F

Location of KongsvingerLocation

Past Weather in Kongsvinger — Graph

°F

Kongsvinger Temperature Yesterday

Maximum temperature yesterday: 57 °F (at 2:50 PM)
Minimum temperature yesterday: 41 °F (at 6:20 AM)
Average temperature yesterday: 50 °F

High & Low Weather Summary for the Past Weeks

 TemperatureHumidityPressure
High72 °F (Sep 13, 3:20 PM)100% (Sep 11, 3:50 AM)30.24 "Hg (Sep 11, 3:50 AM)
Low39 °F (Sep 12, 5:50 AM)34% (Sep 11, 6:20 PM)29.68 "Hg (Sep 11, 6:20 AM)
Average57 °F82%30.10 "Hg
* Reported Sep 10 9:20 PM — Sep 25 9:20 PM, Kongsvinger, Weather by CustomWeather, © 2016

Note: Actual official high and low records may vary slightly from our data, if they occured in-between our weather recording intervals... More about our weather records

Advertising

Kongsvinger Weather History for the Previous 24 Hours

Scroll right to see more
 ConditionsComfort  
Time TempWeatherWind HumidityBarometerVisibility
9:20 PM
Sun, Sep 25
57 °FPassing clouds.6 mph88%30.09 "HgN/A
8:50 PM57 °FPassing clouds.6 mph88%30.09 "HgN/A
8:20 PM57 °FClear.7 mph88%30.07 "Hg10 mi
7:50 PM59 °FPassing clouds.10 mph82%30.07 "HgN/A
7:20 PM59 °FPartly cloudy.9 mph82%30.07 "HgN/A
6:50 PM59 °FSunny.10 mph82%30.07 "Hg10 mi
6:20 PM61 °FPassing clouds.9 mph77%30.07 "HgN/A
5:50 PM61 °FPassing clouds.12 mph77%30.07 "HgN/A
5:20 PM61 °FScattered clouds.14 mph77%30.07 "HgN/A
4:50 PM61 °FBroken clouds.13 mph77%30.07 "HgN/A
4:20 PM63 °FBroken clouds.12 mph73%30.07 "HgN/A
3:50 PM63 °FScattered clouds.13 mph73%30.07 "HgN/A
3:20 PM63 °FBroken clouds.12 mph77%30.07 "HgN/A
2:50 PM61 °FBroken clouds.14 mph77%30.07 "HgN/A
2:20 PM61 °FPartly sunny.13 mph77%30.07 "HgN/A
1:50 PM61 °FPartly sunny.10 mph77%30.07 "HgN/A
1:20 PM61 °FBroken clouds.10 mph77%30.07 "HgN/A
12:50 PM61 °FBroken clouds.13 mph77%30.07 "HgN/A
12:20 PM61 °FScattered clouds.15 mph77%30.07 "HgN/A
11:50 AM61 °FScattered clouds.16 mph77%30.07 "HgN/A
11:20 AM61 °FBroken clouds.15 mph77%30.07 "HgN/A
10:50 AM59 °FScattered showers. Broken clouds.14 mph82%30.07 "HgN/A
10:20 AM57 °FBroken clouds.14 mph94%30.07 "HgN/A
9:50 AM57 °FSprinkles. Partly sunny.9 mph94%30.07 "HgN/A
9:20 AM57 °FSprinkles. Partly sunny.9 mph88%30.07 "HgN/A
8:50 AM57 °FScattered showers. Broken clouds.10 mph88%30.07 "HgN/A
8:20 AM57 °FBroken clouds.12 mph88%30.04 "HgN/A
7:50 AM55 °FPartly sunny.10 mph94%30.04 "HgN/A
7:20 AM55 °FPartly sunny.10 mph94%30.04 "HgN/A
6:50 AM55 °FPartly cloudy.12 mph94%30.04 "HgN/A
6:20 AM55 °FPartly cloudy.13 mph94%30.04 "HgN/A
5:50 AM55 °FPassing clouds.9 mph94%30.04 "HgN/A
5:20 AM55 °FPartly cloudy.6 mph94%30.04 "HgN/A
4:50 AM55 °FPassing clouds.6 mph94%30.04 "HgN/A
3:50 AM55 °FMostly cloudy.7 mph94%30.04 "HgN/A
3:20 AM55 °FPartly cloudy.8 mph94%30.04 "HgN/A
2:50 AM55 °FPartly cloudy.10 mph94%30.04 "HgN/A
2:20 AM55 °FPartly cloudy.7 mph88%30.04 "HgN/A
1:50 AM55 °FPartly cloudy.9 mph88%30.04 "HgN/A
1:20 AM55 °FPartly cloudy.7 mph88%30.04 "HgN/A
12:50 AM55 °FPassing clouds.7 mph88%30.04 "HgN/A
12:20 AM55 °FPassing clouds.7 mph88%30.04 "HgN/A
11:50 PM
Sat, Sep 24
55 °FPartly cloudy.9 mph88%30.04 "HgN/A
11:20 PM55 °FMostly cloudy.12 mph88%30.04 "HgN/A
10:50 PM55 °FPartly cloudy.9 mph88%30.04 "HgN/A
10:20 PM55 °FPassing clouds.10 mph88%30.04 "HgN/A
Weather by CustomWeather, © 2016

See weather overviewHow to use our weather pages